Find Starlink 34852

NORAD ID: 66135 Int'l Des: 2025-237 Owner: SPXS Country: US Constellation: starlink operational
LEOCIRCULAR

当前视图

正在加载3D地球...

关于 Starlink 34852

正在加载描述...

即将过境

Passes for default location (London). Set your location on the main map for personalized predictions.

高度历史

Loading altitude history...

两行轨道根数

1 66135U 25237X 26145.14058550 .00022267 00000-0 76150-3 0 9997
2 66135 53.1582 44.6453 0001125 85.9818 274.1311 15.30207115 34271
Epoch: May 25, 2026 • Age: 29 hours

当前状态

高度 493.9 km
速度 7.62 km/s
星下点 -52.32°S, 81.08°W
发射日期 Oct 22, 2025
运行时间 0.5 years
类型 internet

技术详情

分类 Payload
质量 575.00 kg
干质量 530.00 kg
总质量 575.00 kg
长度 0.30 m
直径 4.10 m
跨度 29.00 m
形状 Box + pan
制造商 SPXS
平台类型 Starlink V2MO
阶段状态 In Orbit
所有者/国家 SPXS/US

Most Searched